Gauley at Summersville (cfs) [ USA-WVR ]

Edit Gauge

Current Conditions

Reading of "n/a" = frozen gauge or gauge error.
Reading Trend Type Updated
86 cfs 0 cfs/hr Flow 01h04m

Station Description

AW Gauge ID: 8515
Source: virtual
Station: 8515
Enabled yes
Description:StreamTeam Member: Matt Muir The virtual Gauley gauge is based on the rating table published by the USGS in Oct 2003. Funding to update the rating table is no longer available. Discharge values calculated by this virtual gauge are thus calculated based on channel bed morphology as of 2003.
Calculation:$g = $gauge[1434]->getValue(GMETRIC_STAGE,0); if ($g >= 8.9) { $x=(-0.0344*pow($g,5))+(2.6808*pow($g,4))-(77.748*pow($g,3))+(1150.7*pow($g,2))-(7873.3*$g)+19890; } elseif ($g >= 7.0) { $x=(69.822*pow($g,2))-(656.23*$g)+1354.5; } elseif ($g >= 6.5) { $x=(171.43*pow($g,2))-(2104.1*$g)+6474; } else { $x=40; } $flow = $x;
Data is courtesy of AW's Stream Team program. This data is calculated based on other gauges and information provided by the Stream Team. This data, and any river data, should be used with caution.

Information

Flow

Gauge History

Times listed in GMT 24h, ET and PT hours provided for convenience Graphs in GMT. Readings of "n/a" constitute a frozen gauge or gauge error.
Reading Updated (GMT) Eastern Pacific Comment
86.38 09/17/2014 10:27:12 Sep 17 06:27 am Sep 17 3:27 am
86.38 09/17/2014 09:27:28 Sep 17 05:27 am Sep 17 2:27 am
86.38 09/17/2014 08:27:44 Sep 17 04:27 am Sep 17 1:27 am
86.38 09/17/2014 07:25:52 Sep 17 03:25 am Sep 17 12:25 am
84.22 09/17/2014 06:26:08 Sep 17 02:26 am Sep 16 11:26 pm
86.38 09/17/2014 05:26:24 Sep 17 01:26 am Sep 16 10:26 pm
84.22 09/17/2014 04:26:40 Sep 17 12:26 am Sep 16 9:26 pm
86.38 09/17/2014 01:27:28 Sep 16 09:27 pm Sep 16 6:27 pm
86.38 09/16/2014 23:25:52 Sep 16 07:25 pm Sep 16 4:25 pm
86.38 09/16/2014 22:26:08 Sep 16 06:26 pm Sep 16 3:26 pm
86.38 09/16/2014 21:26:24 Sep 16 05:26 pm Sep 16 2:26 pm
86.38 09/16/2014 20:26:40 Sep 16 04:26 pm Sep 16 1:26 pm
84.22 09/16/2014 19:26:56 Sep 16 03:26 pm Sep 16 12:26 pm
86.38 09/16/2014 18:27:12 Sep 16 02:27 pm Sep 16 11:27 am
84.22 09/16/2014 17:27:28 Sep 16 01:27 pm Sep 16 10:27 am
86.38 09/16/2014 16:27:44 Sep 16 12:27 pm Sep 16 9:27 am
86.38 09/16/2014 15:25:52 Sep 16 11:25 am Sep 16 8:25 am
90.79 09/16/2014 14:26:08 Sep 16 10:26 am Sep 16 7:26 am
90.79 09/16/2014 13:26:24 Sep 16 09:26 am Sep 16 6:26 am
90.79 09/16/2014 12:26:40 Sep 16 08:26 am Sep 16 5:26 am
90.79 09/16/2014 11:26:56 Sep 16 07:26 am Sep 16 4:26 am
90.79 09/16/2014 10:27:12 Sep 16 06:27 am Sep 16 3:27 am
90.79 09/16/2014 09:27:28 Sep 16 05:27 am Sep 16 2:27 am
90.79 09/16/2014 08:27:44 Sep 16 04:27 am Sep 16 1:27 am
90.79 09/16/2014 07:25:52 Sep 16 03:25 am Sep 16 12:25 am
90.79 09/16/2014 06:26:08 Sep 16 02:26 am Sep 15 11:26 pm
90.79 09/16/2014 05:26:24 Sep 16 01:26 am Sep 15 10:26 pm
90.79 09/16/2014 04:26:40 Sep 16 12:26 am Sep 15 9:26 pm
90.79 09/16/2014 02:27:12 Sep 15 10:27 pm Sep 15 7:27 pm
107.30 09/16/2014 00:27:44 Sep 15 08:27 pm Sep 15 5:27 pm
564.08 09/15/2014 22:26:08 Sep 15 06:26 pm Sep 15 3:26 pm
763.65 09/15/2014 21:26:24 Sep 15 05:26 pm Sep 15 2:26 pm
2005.66 09/15/2014 17:27:28 Sep 15 01:27 pm Sep 15 10:27 am
2745.25 09/15/2014 16:27:44 Sep 15 12:27 pm Sep 15 9:27 am
2725.80 09/15/2014 15:25:52 Sep 15 11:25 am Sep 15 8:25 am
2745.25 09/15/2014 14:26:08 Sep 15 10:26 am Sep 15 7:26 am
2745.25 09/15/2014 13:26:24 Sep 15 09:26 am Sep 15 6:26 am
2755.00 09/15/2014 12:26:40 Sep 15 08:26 am Sep 15 5:26 am
2735.52 09/15/2014 11:26:56 Sep 15 07:26 am Sep 15 4:26 am
1904.77 09/15/2014 10:27:12 Sep 15 06:27 am Sep 15 3:27 am
559.50 09/15/2014 06:26:08 Sep 15 02:26 am Sep 14 11:26 pm
564.08 09/15/2014 04:26:40 Sep 15 12:26 am Sep 14 9:26 pm
564.08 09/15/2014 02:27:12 Sep 14 10:27 pm Sep 14 7:27 pm
564.08 09/15/2014 01:27:28 Sep 14 09:27 pm Sep 14 6:27 pm
568.67 09/14/2014 23:25:52 Sep 14 07:25 pm Sep 14 4:25 pm
573.27 09/14/2014 22:26:08 Sep 14 06:26 pm Sep 14 3:26 pm
673.14 09/14/2014 21:26:24 Sep 14 05:26 pm Sep 14 2:26 pm
1436.72 09/14/2014 19:26:56 Sep 14 03:26 pm Sep 14 12:26 pm
1938.14 09/14/2014 18:27:12 Sep 14 02:27 pm Sep 14 11:27 am
2725.80 09/14/2014 17:27:28 Sep 14 01:27 pm Sep 14 10:27 am
2735.52 09/14/2014 16:27:44 Sep 14 12:27 pm Sep 14 9:27 am
2735.52 09/14/2014 14:26:08 Sep 14 10:26 am Sep 14 7:26 am
2755.00 09/14/2014 13:26:24 Sep 14 09:26 am Sep 14 6:26 am
2745.25 09/14/2014 12:26:40 Sep 14 08:26 am Sep 14 5:26 am
2745.25 09/14/2014 11:26:56 Sep 14 07:26 am Sep 14 4:26 am
1913.09 09/14/2014 09:27:28 Sep 14 05:27 am Sep 14 2:27 am
748.25 09/14/2014 08:27:44 Sep 14 04:27 am Sep 14 1:27 am
554.94 09/14/2014 07:25:52 Sep 14 03:25 am Sep 14 12:25 am
559.50 09/14/2014 06:26:08 Sep 14 02:26 am Sep 13 11:26 pm
559.50 09/14/2014 05:26:24 Sep 14 01:26 am Sep 13 10:26 pm
554.94 09/14/2014 04:26:40 Sep 14 12:26 am Sep 13 9:26 pm
554.94 09/14/2014 02:27:12 Sep 13 10:27 pm Sep 13 7:27 pm
559.50 09/14/2014 01:27:28 Sep 13 09:27 pm Sep 13 6:27 pm
568.67 09/13/2014 23:25:52 Sep 13 07:25 pm Sep 13 4:25 pm
573.27 09/13/2014 22:26:08 Sep 13 06:26 pm Sep 13 3:26 pm
673.14 09/13/2014 21:26:24 Sep 13 05:26 pm Sep 13 2:26 pm
1213.74 09/13/2014 20:26:40 Sep 13 04:26 pm Sep 13 1:26 pm
1414.99 09/13/2014 19:26:56 Sep 13 03:26 pm Sep 13 12:26 pm
1946.52 09/13/2014 18:27:12 Sep 13 02:27 pm Sep 13 11:27 am
2735.52 09/13/2014 17:27:28 Sep 13 01:27 pm Sep 13 10:27 am
2716.10 09/13/2014 16:27:44 Sep 13 12:27 pm Sep 13 9:27 am
2716.10 09/13/2014 15:25:52 Sep 13 11:25 am Sep 13 8:25 am
2716.10 09/13/2014 14:26:08 Sep 13 10:26 am Sep 13 7:26 am
2735.52 09/13/2014 12:26:40 Sep 13 08:26 am Sep 13 5:26 am
2706.41 09/13/2014 10:27:12 Sep 13 06:27 am Sep 13 3:27 am
1921.42 09/13/2014 09:27:28 Sep 13 05:27 am Sep 13 2:27 am
559.50 09/13/2014 04:26:40 Sep 13 12:26 am Sep 12 9:26 pm
559.50 09/13/2014 01:27:28 Sep 12 09:27 pm Sep 12 6:27 pm
559.50 09/12/2014 23:25:52 Sep 12 07:25 pm Sep 12 4:25 pm
564.08 09/12/2014 22:26:08 Sep 12 06:26 pm Sep 12 3:26 pm
564.08 09/12/2014 21:26:24 Sep 12 05:26 pm Sep 12 2:26 pm
668.25 09/12/2014 20:26:40 Sep 12 04:26 pm Sep 12 1:26 pm
1254.04 09/12/2014 19:26:56 Sep 12 03:26 pm Sep 12 12:26 pm
1429.45 09/12/2014 18:27:12 Sep 12 02:27 pm Sep 12 11:27 am
1954.92 09/12/2014 17:27:28 Sep 12 01:27 pm Sep 12 10:27 am
2735.52 09/12/2014 16:27:44 Sep 12 12:27 pm Sep 12 9:27 am
2725.80 09/12/2014 15:25:52 Sep 12 11:25 am Sep 12 8:25 am
2725.80 09/12/2014 14:26:08 Sep 12 10:26 am Sep 12 7:26 am
2725.80 09/12/2014 13:26:24 Sep 12 09:26 am Sep 12 6:26 am
2725.80 09/12/2014 12:26:40 Sep 12 08:26 am Sep 12 5:26 am
2706.41 09/12/2014 11:26:56 Sep 12 07:26 am Sep 12 4:26 am
1863.42 09/12/2014 10:27:12 Sep 12 06:27 am Sep 12 3:27 am
743.14 09/12/2014 09:27:28 Sep 12 05:27 am Sep 12 2:27 am
550.40 09/12/2014 08:27:44 Sep 12 04:27 am Sep 12 1:27 am
550.40 09/12/2014 07:25:52 Sep 12 03:25 am Sep 12 12:25 am
550.40 09/12/2014 06:26:08 Sep 12 02:26 am Sep 11 11:26 pm
554.94 09/12/2014 05:26:24 Sep 12 01:26 am Sep 11 10:26 pm
550.40 09/12/2014 04:26:40 Sep 12 12:26 am Sep 11 9:26 pm
554.94 09/12/2014 00:27:44 Sep 11 08:27 pm Sep 11 5:27 pm
554.94 09/11/2014 21:26:24 Sep 11 05:26 pm Sep 11 2:26 pm
559.50 09/11/2014 20:26:40 Sep 11 04:26 pm Sep 11 1:26 pm
97.66 09/11/2014 18:27:12 Sep 11 02:27 pm Sep 11 11:27 am
97.66 09/11/2014 17:27:28 Sep 11 01:27 pm Sep 11 10:27 am
95.33 09/11/2014 16:27:44 Sep 11 12:27 pm Sep 11 9:27 am
97.66 09/11/2014 15:25:52 Sep 11 11:25 am Sep 11 8:25 am
95.33 09/11/2014 14:26:08 Sep 11 10:26 am Sep 11 7:26 am
95.33 09/11/2014 13:26:24 Sep 11 09:26 am Sep 11 6:26 am
95.33 09/11/2014 12:26:40 Sep 11 08:26 am Sep 11 5:26 am
95.33 09/11/2014 11:26:56 Sep 11 07:26 am Sep 11 4:26 am
95.33 09/11/2014 10:27:12 Sep 11 06:27 am Sep 11 3:27 am
95.33 09/11/2014 09:27:28 Sep 11 05:27 am Sep 11 2:27 am
97.66 09/11/2014 08:27:44 Sep 11 04:27 am Sep 11 1:27 am
95.33 09/11/2014 07:25:52 Sep 11 03:25 am Sep 11 12:25 am
95.33 09/11/2014 06:26:08 Sep 11 02:26 am Sep 10 11:26 pm
95.33 09/11/2014 05:26:24 Sep 11 01:26 am Sep 10 10:26 pm
95.33 09/11/2014 04:26:40 Sep 11 12:26 am Sep 10 9:26 pm
95.33 09/11/2014 02:27:12 Sep 10 10:27 pm Sep 10 7:27 pm
95.33 09/11/2014 00:27:44 Sep 10 08:27 pm Sep 10 5:27 pm
95.33 09/10/2014 23:25:52 Sep 10 07:25 pm Sep 10 4:25 pm
95.33 09/10/2014 22:26:08 Sep 10 06:26 pm Sep 10 3:26 pm
95.33 09/10/2014 21:26:24 Sep 10 05:26 pm Sep 10 2:26 pm
95.33 09/10/2014 20:26:40 Sep 10 04:26 pm Sep 10 1:26 pm
95.33 09/10/2014 19:26:56 Sep 10 03:26 pm Sep 10 12:26 pm
95.33 09/10/2014 18:27:12 Sep 10 02:27 pm Sep 10 11:27 am
95.33 09/10/2014 17:27:28 Sep 10 01:27 pm Sep 10 10:27 am
95.33 09/10/2014 16:27:44 Sep 10 12:27 pm Sep 10 9:27 am
95.33 09/10/2014 15:25:52 Sep 10 11:25 am Sep 10 8:25 am
95.33 09/10/2014 14:26:08 Sep 10 10:26 am Sep 10 7:26 am
95.33 09/10/2014 13:26:24 Sep 10 09:26 am Sep 10 6:26 am
95.33 09/10/2014 12:26:40 Sep 10 08:26 am Sep 10 5:26 am
95.33 09/10/2014 11:26:56 Sep 10 07:26 am Sep 10 4:26 am
95.33 09/10/2014 10:27:12 Sep 10 06:27 am Sep 10 3:27 am
95.33 09/10/2014 09:27:28 Sep 10 05:27 am Sep 10 2:27 am
95.33 09/10/2014 08:27:44 Sep 10 04:27 am Sep 10 1:27 am
95.33 09/10/2014 07:25:52 Sep 10 03:25 am Sep 10 12:25 am
95.33 09/10/2014 06:26:08 Sep 10 02:26 am Sep 9 11:26 pm
95.33 09/10/2014 05:26:24 Sep 10 01:26 am Sep 9 10:26 pm
95.33 09/10/2014 03:26:56 Sep 9 11:26 pm Sep 9 8:26 pm
95.33 09/10/2014 01:27:28 Sep 9 09:27 pm Sep 9 6:27 pm
95.33 09/09/2014 23:25:52 Sep 9 07:25 pm Sep 9 4:25 pm
95.33 09/09/2014 22:26:08 Sep 9 06:26 pm Sep 9 3:26 pm
95.33 09/09/2014 21:26:24 Sep 9 05:26 pm Sep 9 2:26 pm
95.33 09/09/2014 20:26:40 Sep 9 04:26 pm Sep 9 1:26 pm
97.66 09/09/2014 19:26:56 Sep 9 03:26 pm Sep 9 12:26 pm
100.02 09/09/2014 18:27:12 Sep 9 02:27 pm Sep 9 11:27 am
114.89 09/09/2014 17:27:28 Sep 9 01:27 pm Sep 9 10:27 am
114.89 09/09/2014 16:27:44 Sep 9 12:27 pm Sep 9 9:27 am
114.89 09/09/2014 15:25:52 Sep 9 11:25 am Sep 9 8:25 am
114.89 09/09/2014 13:26:24 Sep 9 09:26 am Sep 9 6:26 am
114.89 09/09/2014 10:27:12 Sep 9 06:27 am Sep 9 3:27 am
114.89 09/09/2014 09:27:28 Sep 9 05:27 am Sep 9 2:27 am
114.89 09/09/2014 08:27:44 Sep 9 04:27 am Sep 9 1:27 am
114.89 09/09/2014 07:25:52 Sep 9 03:25 am Sep 9 12:25 am
114.89 09/09/2014 06:26:08 Sep 9 02:26 am Sep 8 11:26 pm
112.33 09/09/2014 05:26:24 Sep 9 01:26 am Sep 8 10:26 pm
114.89 09/09/2014 04:26:40 Sep 9 12:26 am Sep 8 9:26 pm
114.89 09/09/2014 01:27:28 Sep 8 09:27 pm Sep 8 6:27 pm
211.65 09/08/2014 23:25:52 Sep 8 07:25 pm Sep 8 4:25 pm
356.36 09/08/2014 22:26:08 Sep 8 06:26 pm Sep 8 3:26 pm
564.08 09/08/2014 21:26:24 Sep 8 05:26 pm Sep 8 2:26 pm
692.86 09/08/2014 20:26:40 Sep 8 04:26 pm Sep 8 1:26 pm
1295.05 09/08/2014 19:26:56 Sep 8 03:26 pm Sep 8 12:26 pm
1458.61 09/08/2014 18:27:12 Sep 8 02:27 pm Sep 8 11:27 am
1988.68 09/08/2014 17:27:28 Sep 8 01:27 pm Sep 8 10:27 am
2735.52 09/08/2014 16:27:44 Sep 8 12:27 pm Sep 8 9:27 am
2745.25 09/08/2014 15:25:52 Sep 8 11:25 am Sep 8 8:25 am
2735.52 09/08/2014 14:26:08 Sep 8 10:26 am Sep 8 7:26 am
2735.52 09/08/2014 13:26:24 Sep 8 09:26 am Sep 8 6:26 am
2735.52 09/08/2014 12:26:40 Sep 8 08:26 am Sep 8 5:26 am
2706.41 09/08/2014 11:26:56 Sep 8 07:26 am Sep 8 4:26 am
1904.77 09/08/2014 10:27:12 Sep 8 06:27 am Sep 8 3:27 am
753.37 09/08/2014 09:27:28 Sep 8 05:27 am Sep 8 2:27 am
554.94 09/08/2014 08:27:44 Sep 8 04:27 am Sep 8 1:27 am
550.40 09/08/2014 07:25:52 Sep 8 03:25 am Sep 8 12:25 am
550.40 09/08/2014 06:26:08 Sep 8 02:26 am Sep 7 11:26 pm
554.94 09/08/2014 05:26:24 Sep 8 01:26 am Sep 7 10:26 pm
554.94 09/08/2014 04:26:40 Sep 8 12:26 am Sep 7 9:26 pm
559.50 09/08/2014 00:27:44 Sep 7 08:27 pm Sep 7 5:27 pm
564.08 09/07/2014 23:25:52 Sep 7 07:25 pm Sep 7 4:25 pm
564.08 09/07/2014 22:26:08 Sep 7 06:26 pm Sep 7 3:26 pm
687.91 09/07/2014 21:26:24 Sep 7 05:26 pm Sep 7 2:26 pm
1097.19 09/07/2014 20:26:40 Sep 7 04:26 pm Sep 7 1:26 pm
1473.30 09/07/2014 19:26:56 Sep 7 03:26 pm Sep 7 12:26 pm
1971.77 09/07/2014 18:27:12 Sep 7 02:27 pm Sep 7 11:27 am
2735.52 09/07/2014 17:27:28 Sep 7 01:27 pm Sep 7 10:27 am
2725.80 09/07/2014 16:27:44 Sep 7 12:27 pm Sep 7 9:27 am
2716.10 09/07/2014 15:25:52 Sep 7 11:25 am Sep 7 8:25 am
2696.74 09/07/2014 14:26:08 Sep 7 10:26 am Sep 7 7:26 am
2706.41 09/07/2014 13:26:24 Sep 7 09:26 am Sep 7 6:26 am
2667.81 09/07/2014 12:26:40 Sep 7 08:26 am Sep 7 5:26 am
2687.08 09/07/2014 11:26:56 Sep 7 07:26 am Sep 7 4:26 am
2648.60 09/07/2014 10:27:12 Sep 7 06:27 am Sep 7 3:27 am
1904.77 09/07/2014 09:27:28 Sep 7 05:27 am Sep 7 2:27 am
789.59 09/07/2014 08:27:44 Sep 7 04:27 am Sep 7 1:27 am
554.94 09/07/2014 07:25:52 Sep 7 03:25 am Sep 7 12:25 am
545.86 09/07/2014 06:26:08 Sep 7 02:26 am Sep 6 11:26 pm
545.86 09/07/2014 05:26:24 Sep 7 01:26 am Sep 6 10:26 pm
554.94 09/07/2014 03:26:56 Sep 6 11:26 pm Sep 6 8:26 pm
554.94 09/07/2014 02:27:12 Sep 6 10:27 pm Sep 6 7:27 pm
545.86 09/07/2014 00:27:44 Sep 6 08:27 pm Sep 6 5:27 pm
550.40 09/06/2014 23:25:52 Sep 6 07:25 pm Sep 6 4:25 pm
550.40 09/06/2014 22:26:08 Sep 6 06:26 pm Sep 6 3:26 pm
663.36 09/06/2014 21:26:24 Sep 6 05:26 pm Sep 6 2:26 pm
1227.10 09/06/2014 20:26:40 Sep 6 04:26 pm Sep 6 1:26 pm
1400.59 09/06/2014 19:26:56 Sep 6 03:26 pm Sep 6 12:26 pm
1896.47 09/06/2014 18:27:12 Sep 6 02:27 pm Sep 6 11:27 am
2725.80 09/06/2014 17:27:28 Sep 6 01:27 pm Sep 6 10:27 am
2735.52 09/06/2014 16:27:44 Sep 6 12:27 pm Sep 6 9:27 am
2764.76 09/06/2014 15:25:52 Sep 6 11:25 am Sep 6 8:25 am
2755.00 09/06/2014 14:26:08 Sep 6 10:26 am Sep 6 7:26 am
2784.32 09/06/2014 13:26:24 Sep 6 09:26 am Sep 6 6:26 am
2764.76 09/06/2014 12:26:40 Sep 6 08:26 am Sep 6 5:26 am
2813.78 09/06/2014 10:27:12 Sep 6 06:27 am Sep 6 3:27 am
1863.42 09/06/2014 09:27:28 Sep 6 05:27 am Sep 6 2:27 am
545.86 09/06/2014 07:25:52 Sep 6 03:25 am Sep 6 12:25 am
545.86 09/06/2014 06:26:08 Sep 6 02:26 am Sep 5 11:26 pm
545.86 09/06/2014 05:26:24 Sep 6 01:26 am Sep 5 10:26 pm
545.86 09/06/2014 03:26:56 Sep 5 11:26 pm Sep 5 8:26 pm
545.86 09/06/2014 01:27:28 Sep 5 09:27 pm Sep 5 6:27 pm
545.86 09/05/2014 23:25:52 Sep 5 07:25 pm Sep 5 4:25 pm
550.40 09/05/2014 22:26:08 Sep 5 06:26 pm Sep 5 3:26 pm
554.94 09/05/2014 21:26:24 Sep 5 05:26 pm Sep 5 2:26 pm
779.17 09/05/2014 20:26:40 Sep 5 04:26 pm Sep 5 1:26 pm
1084.65 09/05/2014 19:26:56 Sep 5 03:26 pm Sep 5 12:26 pm
1480.67 09/05/2014 18:27:12 Sep 5 02:27 pm Sep 5 11:27 am
2082.84 09/05/2014 17:27:28 Sep 5 01:27 pm Sep 5 10:27 am
2813.78 09/05/2014 16:27:44 Sep 5 12:27 pm Sep 5 9:27 am
2784.32 09/05/2014 15:25:52 Sep 5 11:25 am Sep 5 8:25 am
2774.53 09/05/2014 14:26:08 Sep 5 10:26 am Sep 5 7:26 am
2774.53 09/05/2014 13:26:24 Sep 5 09:26 am Sep 5 6:26 am
2774.53 09/05/2014 12:26:40 Sep 5 08:26 am Sep 5 5:26 am
2983.20 09/05/2014 11:26:56 Sep 5 07:26 am Sep 5 4:26 am
1879.91 09/05/2014 10:27:12 Sep 5 06:27 am Sep 5 3:27 am
958.23 09/05/2014 09:27:28 Sep 5 05:27 am Sep 5 2:27 am
554.94 09/05/2014 08:27:44 Sep 5 04:27 am Sep 5 1:27 am
554.94 09/05/2014 07:25:52 Sep 5 03:25 am Sep 5 12:25 am
559.50 09/05/2014 06:26:08 Sep 5 02:26 am Sep 4 11:26 pm
554.94 09/05/2014 05:26:24 Sep 5 01:26 am Sep 4 10:26 pm
554.94 09/05/2014 04:26:40 Sep 5 12:26 am Sep 4 9:26 pm
554.94 09/05/2014 01:27:28 Sep 4 09:27 pm Sep 4 6:27 pm
554.94 09/04/2014 23:25:52 Sep 4 07:25 pm Sep 4 4:25 pm
554.94 09/04/2014 22:26:08 Sep 4 06:26 pm Sep 4 3:26 pm
550.40 09/04/2014 21:26:24 Sep 4 05:26 pm Sep 4 2:26 pm
554.94 09/04/2014 20:26:40 Sep 4 04:26 pm Sep 4 1:26 pm
568.67 09/04/2014 19:26:56 Sep 4 03:26 pm Sep 4 12:26 pm
753.37 09/04/2014 18:27:12 Sep 4 02:27 pm Sep 4 11:27 am
1109.81 09/04/2014 17:27:28 Sep 4 01:27 pm Sep 4 10:27 am
1547.83 09/04/2014 16:27:44 Sep 4 12:27 pm Sep 4 9:27 am
1904.77 09/04/2014 15:25:52 Sep 4 11:25 am Sep 4 8:25 am
1946.52 09/04/2014 14:26:08 Sep 4 10:26 am Sep 4 7:26 am
1929.77 09/04/2014 13:26:24 Sep 4 09:26 am Sep 4 6:26 am
1038.79 09/04/2014 12:26:40 Sep 4 08:26 am Sep 4 5:26 am
620.06 09/04/2014 11:26:56 Sep 4 07:26 am Sep 4 4:26 am
136.65 09/04/2014 10:27:12 Sep 4 06:27 am Sep 4 3:27 am
136.65 09/04/2014 09:27:28 Sep 4 05:27 am Sep 4 2:27 am
136.65 09/04/2014 08:27:44 Sep 4 04:27 am Sep 4 1:27 am
136.65 09/04/2014 07:25:52 Sep 4 03:25 am Sep 4 12:25 am
136.65 09/04/2014 06:26:08 Sep 4 02:26 am Sep 3 11:26 pm
136.65 09/04/2014 05:26:24 Sep 4 01:26 am Sep 3 10:26 pm
136.65 09/04/2014 04:26:40 Sep 4 12:26 am Sep 3 9:26 pm
136.65 09/04/2014 01:27:28 Sep 3 09:27 pm Sep 3 6:27 pm
136.65 09/03/2014 23:25:52 Sep 3 07:25 pm Sep 3 4:25 pm
136.65 09/03/2014 22:26:08 Sep 3 06:26 pm Sep 3 3:26 pm
133.81 09/03/2014 21:26:24 Sep 3 05:26 pm Sep 3 2:26 pm
133.81 09/03/2014 20:26:40 Sep 3 04:26 pm Sep 3 1:26 pm
136.65 09/03/2014 19:26:56 Sep 3 03:26 pm Sep 3 12:26 pm
133.81 09/03/2014 18:27:12 Sep 3 02:27 pm Sep 3 11:27 am
136.65 09/03/2014 17:27:28 Sep 3 01:27 pm Sep 3 10:27 am
133.81 09/03/2014 16:27:44 Sep 3 12:27 pm Sep 3 9:27 am
136.65 09/03/2014 15:25:52 Sep 3 11:25 am Sep 3 8:25 am
136.65 09/03/2014 14:26:08 Sep 3 10:26 am Sep 3 7:26 am
136.65 09/03/2014 13:26:24 Sep 3 09:26 am Sep 3 6:26 am
136.65 09/03/2014 12:26:40 Sep 3 08:26 am Sep 3 5:26 am
133.81 09/03/2014 11:26:56 Sep 3 07:26 am Sep 3 4:26 am
133.81 09/03/2014 10:27:12 Sep 3 06:27 am Sep 3 3:27 am
133.81 09/03/2014 09:27:28 Sep 3 05:27 am Sep 3 2:27 am
133.81 09/03/2014 08:27:44 Sep 3 04:27 am Sep 3 1:27 am
136.65 09/03/2014 07:25:52 Sep 3 03:25 am Sep 3 12:25 am
136.65 09/03/2014 06:26:08 Sep 3 02:26 am Sep 2 11:26 pm
133.81 09/03/2014 05:26:24 Sep 3 01:26 am Sep 2 10:26 pm
133.81 09/03/2014 04:26:40 Sep 3 12:26 am Sep 2 9:26 pm
136.65 09/03/2014 01:27:28 Sep 2 09:27 pm Sep 2 6:27 pm
136.65 09/02/2014 23:25:52 Sep 2 07:25 pm Sep 2 4:25 pm
136.65 09/02/2014 22:26:08 Sep 2 06:26 pm Sep 2 3:26 pm
136.65 09/02/2014 21:26:24 Sep 2 05:26 pm Sep 2 2:26 pm
136.65 09/02/2014 20:26:40 Sep 2 04:26 pm Sep 2 1:26 pm
133.81 09/02/2014 19:26:56 Sep 2 03:26 pm Sep 2 12:26 pm
136.65 09/02/2014 18:27:12 Sep 2 02:27 pm Sep 2 11:27 am
133.81 09/02/2014 17:27:28 Sep 2 01:27 pm Sep 2 10:27 am
136.65 09/02/2014 16:27:44 Sep 2 12:27 pm Sep 2 9:27 am
136.65 09/02/2014 15:25:52 Sep 2 11:25 am Sep 2 8:25 am
136.65 09/02/2014 14:26:08 Sep 2 10:26 am Sep 2 7:26 am
133.81 09/02/2014 13:26:24 Sep 2 09:26 am Sep 2 6:26 am
136.65 09/02/2014 12:26:40 Sep 2 08:26 am Sep 2 5:26 am
136.65 09/02/2014 11:26:56 Sep 2 07:26 am Sep 2 4:26 am
133.81 09/02/2014 10:27:12 Sep 2 06:27 am Sep 2 3:27 am
133.81 09/02/2014 09:27:28 Sep 2 05:27 am Sep 2 2:27 am
136.65 09/02/2014 08:27:44 Sep 2 04:27 am Sep 2 1:27 am
136.65 09/02/2014 07:25:52 Sep 2 03:25 am Sep 2 12:25 am
136.65 09/02/2014 06:26:08 Sep 2 02:26 am Sep 1 11:26 pm

Report - Reports of Related Gauges

Reports give the public a chance to report on river conditions throughout the country as well as log the history of a river.

Reports

When River/Gauge Subject Level Reporter
5y114d23h34m Gauley at Summersville (cfs) [WV] Account of 05/26/09 245 cfs Ryan Groth

Linked Reaches

Click a heading to sort. Hover over a heading for help.
River Name/Section Class Level running? Updated
Gauley [WV] 7 (Upper). Summersville Dam to Mason Branch IV-V 86 cfs
0 cfs/hr
L8-
Below Recom.
01h04m
Gauley [WV] 9 (Lower). Bucklick Branch to Swiss III-IV(V) 217 cfs
0 cfs/hr
L0-
Below Recom.
00h32m

Associated Gauges

Disclaimer Data Sources

GAULEY RIVER BELOW SUMMERSVILLE DAM, WV (AW#1434)

6.77 ft 01h02m